#timestamp,LO_Frequency,Hit,StdDev 
1558123215.1,286046999.4,N
1558123216.0,286046999.4,N
1558123235.8,286047002.6,N
1558123255.7,286047001.5,N
1558123275.5,286047004.4,N
1558123295.3,286047003.8,N
1558123315.2,286047003.7,N
1558123335.0,286047003.8,N
1558123335.9,286047003.8,N
1558123355.8,286047005.1,N
1558123375.6,286047005.7,N
1558123395.4,286047003.4,N
1558123415.3,286047005.6,N
1558123435.1,286047004.1,N
1558123455.9,286047001.8,N
1558123475.7,286047001.5,N
1558123495.5,286047002.1,N
1558123515.4,286047002.5,N
1558123535.2,286047002.8,N
1558123555.0,286047002.6,N
1558123555.9,286047002.6,N
1558123575.8,286047001.1,N
1558123595.6,286047000.2,N
1558123615.4,286047003.1,N
1558123635.3,286047001.7,N
1558123655.1,286046999.7,N
1558123675.9,286046999.7,N
1558123695.7,286047000.5,N
1558123715.5,286047002.3,N
1558123735.4,286047002.4,N
1558123755.2,286047002.4,N
1558123775.0,286047002.5,N
1558123775.9,286047002.5,N
1558123795.8,286047006.0,Y
1558123815.6,286047004.2,P
1558123835.5,286047003.4,P
1558123855.3,286047003.6,P
1558123875.1,286047004.3,Y
1558123895.9,286047001.2,P
1558123915.7,286046999.4,N
1558123935.6,286046996.5,N
1558123955.4,286046997.8,N
1558123975.2,286046997.6,N
1558123995.1,286046996.2,N
1558123996.0,286046996.2,N
1558124015.8,286046993.8,N
1558124035.6,286046993.8,N
1558124055.5,286046994.8,N
1558124075.3,286046993.3,N
1558124095.1,286046995.7,N
1558124115.9,286046995.9,N
1558124135.7,286046994.9,N
1558124155.6,286046993.7,N
1558124175.4,286046994.5,N
1558124195.2,286046993.7,N
1558124215.1,286046995.2,N
1558124216.0,286046995.2,N
1558124235.8,286046999.2,N
1558124255.6,286046997.4,N
1558124275.5,286046998.0,N
1558124295.3,286046997.5,N
1558124315.2,286046999.2,N
1558124335.9,286047000.8,N
1558124355.7,286046998.1,N
1558124375.6,286046998.9,N
1558124395.4,286046999.5,N
1558124415.2,286046995.8,N
1558124435.1,286046995.1,N
1558124436.0,286047011.9,Y
1558124455.8,286046999.0,P
1558124475.7,286046999.5,N
1558124495.5,286046999.3,N
1558124515.3,286046999.4,N
1558124535.2,286046999.9,N
1558124555.9,286047002.7,N
1558124575.7,286047000.3,N
1558124595.6,286046999.1,N
1558124615.4,286047000.4,N
1558124635.2,286047000.4,N
1558124655.1,286046999.2,N
1558124656.0,286046999.2,N
1558124675.8,286046999.4,N
1558124695.7,286047000.7,N
1558124715.5,286047002.2,N
1558124735.3,286047002.7,N
1558124755.2,286047000.2,N
1558124775.0,286047000.6,N
1558124775.9,286047000.6,N
1558124795.7,286047000.1,N
1558124815.6,286047001.4,N
1558124835.4,286046999.8,N
1558124855.3,286046998.4,N
1558124875.1,286046999.9,N
1558124876.0,286046999.9,N
1558124895.8,286047000.5,N
1558124915.7,286047001.0,N
1558124935.5,286046998.8,N
1558124955.3,286046998.7,N
1558124975.2,286046999.1,N
1558124995.0,286046998.9,N
1558124995.9,286046998.9,N
1558125015.8,286047000.4,N
1558125035.6,286047001.3,N
1558125055.4,286047000.2,N
1558125075.3,286047000.0,N
1558125095.1,286047000.5,N
1558125115.9,286047000.4,N
1558125135.7,286047001.8,N
1558125155.5,286047004.2,Y
1558125175.4,286047004.0,P
1558125195.2,286047001.8,N
1558125215.1,286047003.6,N
1558125216.0,286047003.6,N
1558125235.8,286047001.6,N
1558125255.6,286047001.8,N
1558125275.5,286046999.7,N
1558125295.3,286047000.7,N
1558125315.1,286047001.2,N
1558125335.9,286047000.3,N
1558125355.7,286047001.7,N
1558125375.6,286047001.3,N
1558125395.4,286047000.2,N
1558125415.2,286047001.2,N
1558125435.1,286046996.6,N
1558125436.0,286046996.6,N
1558125455.8,286046996.6,N
1558125475.6,286047001.0,N
1558125495.5,286047000.1,N
1558125515.3,286047000.4,N
1558125535.2,286046998.9,N
1558125555.9,286047001.9,N
1558125575.7,286047002.6,N
1558125595.6,286047002.8,N
1558125615.4,286047001.1,N
1558125635.2,286047000.9,N
1558125655.1,286046999.4,N
1558125656.0,286046999.4,N
1558125675.8,286046999.0,N
1558125695.7,286046998.3,N
1558125715.5,286046998.8,N
1558125735.3,286046999.1,N
1558125755.2,286047002.5,N
1558125775.0,286047002.8,N
1558125775.9,286047002.8,N
1558125795.7,286046999.9,N
1558125815.6,286047001.0,N
1558125835.4,286046998.8,N
1558125855.3,286047000.4,N
1558125875.1,286047002.6,N
1558125876.0,286047002.6,N
1558125895.8,286047002.7,N
1558125915.7,286047001.2,N
1558125935.5,286046998.3,N
1558125955.3,286046998.5,N
1558125975.2,286046998.2,N
1558125995.0,286046996.5,N
1558125995.9,286046996.5,N
1558126015.8,286046997.2,N
1558126035.6,286046998.9,N
1558126055.4,286046998.4,N
1558126075.3,286047000.6,N
1558126095.9,286047003.9,N
1558126115.7,286047003.1,N
1558126135.6,286047004.2,N
1558126155.4,286047003.7,N
1558126175.2,286047003.8,N
1558126195.1,286047003.6,N
1558126196.0,286047003.6,N
1558126215.8,286047004.0,N
1558126235.6,286047001.8,N
1558126255.5,286047001.5,N
1558126275.3,286047000.0,N
1558126295.2,286047000.4,N
1558126315.9,286047001.0,N
1558126335.7,286047000.1,N
1558126355.6,286047001.3,N
1558126375.4,286047004.3,N
1558126395.2,286047004.3,N
1558126415.1,286047003.9,N
1558126416.0,286047003.9,N
1558126435.8,286047001.3,N
1558126455.7,286047001.4,N
1558126475.5,286047002.8,N
1558126495.9,286047005.9,N
1558126515.7,286047002.3,N
1558126535.6,286047000.0,N
1558126555.4,286047002.4,N
1558126575.2,286047004.2,N
1558126595.1,286047005.8,Y
1558126596.0,286047005.8,P
1558126615.8,286047004.3,N
1558126635.6,286047002.1,N
1558126655.5,286047001.4,N
1558126675.3,286047002.1,N
1558126695.2,286047003.9,N
1558126715.9,286047002.2,N
1558126735.7,286047000.3,N
1558126755.6,286047000.6,N
1558126775.4,286046999.3,N
1558126795.3,286046996.8,N
